Regional Weather Roundup
Issued by NWS

Home | Current Version | Previous Version | Graphics & Text | Print | Product List | Glossary On
Versions: 1 2 3 4 5 6 7 8 9 10 11 12 13 14 15 16 17 18 19 20 21 22 23 24 25 26 27 28 29 30 31 32 33 34 35 36 37 38 39 40 41 42 43 44 45 46 47 48 49 50
000
ASUS45 KCYS 210110
RWRWY

WYOMING REGIONAL WEATHER ROUNDUP
NATIONAL WEATHER SERVICE CHEYENNE WY
600 PM MST SAT DEC 20 2014

NOTE:  "FAIR" INDICATES FEW OR NO CLOUDS BELOW 12,000 FEET
WITH NO SIGNIFICANT WEATHER AND/OR OBSTRUCTIONS TO VISIBILITY.

WYZ001-210200-
YELLOWSTONE NATIONAL PARK

CITY           SKY/WX    TMP DP  RH WIND       PRES   REMARKS
LK YELLOWSTONE   N/A     26  20  77 MISG      29.91S
W YELLOWSTONE  NOT AVBL

$$
WYZ002>013-054>058-071-098>099-210200-
NORTHERN WYOMING

CITY           SKY/WX    TMP DP  RH WIND       PRES   REMARKS
JACKSON        CLOUDY    32  28  86 S16       29.93S WCI  21
CODY           FAIR      34  21  60 SE7       29.82F WCI  28
GREYBULL       FAIR      22  17  81 CALM      29.86F
WORLAND        FAIR      15  12  88 SE5       29.85F WCI   8
SHERIDAN       FAIR      29  23  78 W7        29.81F WCI  22
BUFFALO        MOCLDY    30  23  75 SW6       29.82F WCI  24
GILLETTE       FAIR      31  26  82 S7        29.83F WCI  24
HULETT           N/A    N/A N/A N/A MISG        N/A
NEWCASTLE      FAIR      30  23  74 E6        29.87F WCI  24

$$
WYZ014>020-022>026-101>103-210200-
CENTRAL WYOMING

CITY           SKY/WX    TMP DP  RH WIND       PRES   REMARKS
BIG PINEY      CLOUDY    28  21  75 E5        29.96F WCI  23
PINEDALE       CLOUDY    23  21  93 W3        29.98R
DUBOIS         NOT AVBL
LANDER         FAIR      24  18  77 N7        29.87F WCI  16
RIVERTON       FAIR      20  15  81 VRB6      29.89F WCI  12
CASPER         MOCLDY    34  27  75 SW16      29.89S WCI  24
DOUGLAS        FAIR      33  24  69 S7        29.90F WCI  27

$$
WYZ021-027>030-104>119-210200-
SOUTHERN WYOMING

CITY           SKY/WX    TMP DP  RH WIND       PRES   REMARKS
EVANSTON       CLOUDY    30  28  92 SW12      30.03R WCI  20
KEMMERER       CLOUDY    30  28  93 W6        30.00S WCI  24
FORT BRIDGER   CLOUDY    32  31  94 W13       30.04R WCI  22
ROCK SPRINGS   CLOUDY    30  27  88 SW18      29.99S WCI  18
DIXON          FLURRIES  31  28  90 SW13      30.05S WCI  21
RAWLINS        LGT SNOW  30  25  81 W14       29.97F WCI  19
SARATOGA       MOCLDY    30  25  80 SW15      29.98F WCI  19
LARAMIE        FAIR      30  21  69 SW15      29.93F WCI  19
CHEYENNE       FAIR      37  19  48 W8        29.94S WCI  31
TORRINGTON     FAIR     N/A N/A N/A W8        29.91R
PINE BLUFFS    MOCLDY    34  23  64 S3        29.95R

$$


USA.gov is the U.S. government's official web portal to all federal, state and local government web resources and services.